Location: *
(58.7167°N, 26.1833°E)
Time: 15:27:14
(UTC+00:00)

Meteor 2-12 Rocket - Pass Details

Date: 25 August 2019
Orbit: 936 x 956 km, 82.5° (Epoch: 23 October)

Event Time Altitude Azimuth Distance (km) Brightness Sun altitude
Rises 22:03:00 0° 346° (NNW) 3,613 9.0 -20.6°
Reaches altitude 10° 22:05:30 10° 346° (NNW) 2,664 7.9 -20.6°
Maximum altitude 22:11:35 87° 261° (W) 947 4.4 -20.7°
Enters shadow 22:14:04 39° 171° (S) 1,386 4.8 -20.7°
